Weather Roundup
Issued by NWS Springfield, MO

Home | Current Version | Previous Version | Text Only | Print | Product List | Glossary On
Versions: 1 2 3 4 5 6 7 8 9 10 11 12 13 14 15 16 17 18 19 20 21 22 23 24 25 26 27 28 29 30 31 32 33 34 35 36 37 38 39 40 41 42 43 44 45 46 47 48 49 50
000
NZUS99 KSGF 170857
HRRSGF

HOURLY WEATHER
NATIONAL WEATHER SERVICE SPRINGFIELD MO
300 AM CST TUE JAN 17 2017

......SGF CWA......

CITY           SKY/WX    TMP DP  RH WIND       PRES   REMARKS
SPRINGFIELD    CLOUDY    40  35  83 W10       30.00R WCI  33
JOPLIN         CLOUDY    39  37  92 MISG      30.03S
WEST PLAINS    MOCLDY    39  37  92 W5        30.00R
ROLLA          CLOUDY    40  37  89 W10       29.96R WCI  33

......SURROUNDING SGF CWA......

CITY           SKY/WX    TMP DP  RH WIND       PRES   REMARKS
CHANUTE        CLOUDY    37  34  89 NW7       30.04R WCI  32
PARSONS        CLOUDY    38  35  89 NW10      30.06R WCI  31
EMPORIA        CLOUDY    34  33  96 NW12      30.03R FOG     WCI  25
HARRISON AR    CLOUDY    40  36  86 W6        30.03R

......KANSAS AND MISSOURI......

CITY           SKY/WX    TMP DP  RH WIND       PRES   REMARKS
KANSAS CTY INT CLOUDY    34  33  96 NW9       29.99R WCI  27
SEDALIA        CLOUDY    40  38  93 W12       29.98R WCI  33
ST JOSEPH      CLOUDY    34  34 100 NW8       30.01R WCI  27
ST LOUIS       CLOUDY    47  40  76 W18       29.92R
WICHITA        DRIZZLE   36  34  92 NW10      30.07R WCI  28
TOPEKA         CLOUDY    35  31  85 W9        30.02S WCI  28
OLATHE         CLOUDY    34  34 100 NW10G16   30.00R WCI  26

......TENNESSEE......

CITY           SKY/WX    TMP DP  RH WIND       PRES   REMARKS
MEMPHIS        CLOUDY    61  59  94 W10       30.01R FOG
NASHVILLE      CLOUDY    65  57  75 S17G24    30.02F

......ARKANSAS.......

CITY           SKY/WX    TMP DP  RH WIND       PRES   REMARKS
FAYETTEVILLE   PTCLDY    34  34 100 SW7       30.06R WCI  28
FT SMITH       CLEAR     40  35  83 SW7       30.11R
LITTLE ROCK    CLOUDY    50  47  89 NW9       30.05F

......OKLAHOMA.......

CITY           SKY/WX    TMP DP  RH WIND       PRES   REMARKS
TULSA          CLOUDY    38  35  89 W7        30.09R WCI  33
MCALESTER      CLEAR     33  30  88 SW3       30.12R
OKLAHOMA CITY  PTCLDY    36  32  85 NW9       30.11R WCI  29

......IOWA............

CITY           SKY/WX    TMP DP  RH WIND       PRES   REMARKS
DES MOINES     NOT AVBL
QUAD CITIES    FOG       36  34  92 W6        29.83R VSB 1/2 WCI  31

......ILLINOIS........

CITY           SKY/WX    TMP DP  RH WIND       PRES   REMARKS
QUINCY         NOT AVBL
CHICAGO        CLOUDY    38  38 100 NW6       29.73F FOG     WCI  33



USA.gov is the U.S. government's official web portal to all federal, state and local government web resources and services.